Year,Month,Day,Hour,Minute,Value (Times are PST for temperature in C)
2015,05,19,00,00,15.30
2015,05,19,00,01,15.30
2015,05,19,00,02,15.20
2015,05,19,00,03,15.20
2015,05,19,00,04,15.10
2015,05,19,00,05,15.00
2015,05,19,00,06,14.90
2015,05,19,00,07,14.90
2015,05,19,00,08,14.80
2015,05,19,00,09,14.80
2015,05,19,00,10,14.70
2015,05,19,00,11,14.70
2015,05,19,00,12,14.70
2015,05,19,00,13,14.70
2015,05,19,00,14,14.60
2015,05,19,00,15,14.60
2015,05,19,00,16,14.60
2015,05,19,00,17,14.60
2015,05,19,00,18,14.60
2015,05,19,00,19,14.70
2015,05,19,00,20,14.70
2015,05,19,00,21,14.70
2015,05,19,00,22,14.70
2015,05,19,00,23,14.70
2015,05,19,00,24,14.70
2015,05,19,00,25,14.60
2015,05,19,00,26,14.60
2015,05,19,00,27,14.60
2015,05,19,00,28,14.50
2015,05,19,00,29,14.40
2015,05,19,00,30,14.40
2015,05,19,00,31,14.40
2015,05,19,00,32,14.30
2015,05,19,00,33,14.30
2015,05,19,00,34,14.30
2015,05,19,00,35,14.20
2015,05,19,00,36,14.20
2015,05,19,00,37,14.20
2015,05,19,00,38,14.20
2015,05,19,00,39,14.10
2015,05,19,00,40,14.10
2015,05,19,00,41,14.10
2015,05,19,00,42,14.00
2015,05,19,00,43,14.00
2015,05,19,00,44,14.00
2015,05,19,00,45,13.90
2015,05,19,00,46,13.90
2015,05,19,00,47,13.90
2015,05,19,00,48,13.90
2015,05,19,00,49,13.90
2015,05,19,00,50,13.90
2015,05,19,00,51,13.90
2015,05,19,00,52,13.90
2015,05,19,00,53,13.80
2015,05,19,00,54,13.80
2015,05,19,00,55,13.80
2015,05,19,00,56,13.80
2015,05,19,00,57,13.80
2015,05,19,00,58,13.80
2015,05,19,00,59,13.70
2015,05,19,01,00,13.70
2015,05,19,01,01,13.60
2015,05,19,01,02,13.60
2015,05,19,01,03,13.60
2015,05,19,01,04,13.60
2015,05,19,01,05,13.60
2015,05,19,01,06,13.70
2015,05,19,01,07,13.70
2015,05,19,01,08,13.70
2015,05,19,01,09,13.80
2015,05,19,01,10,13.80
2015,05,19,01,11,13.90
2015,05,19,01,12,13.90
2015,05,19,01,13,14.00
2015,05,19,01,14,14.00
2015,05,19,01,15,14.10
2015,05,19,01,16,14.10
2015,05,19,01,17,14.20
2015,05,19,01,18,14.20
2015,05,19,01,19,14.20
2015,05,19,01,20,14.20
2015,05,19,01,21,14.20
2015,05,19,01,22,14.20
2015,05,19,01,23,14.10
2015,05,19,01,24,14.00
2015,05,19,01,25,13.90
2015,05,19,01,26,13.90
2015,05,19,01,27,13.80
2015,05,19,01,28,13.80
2015,05,19,01,29,13.70
2015,05,19,01,30,13.70
2015,05,19,01,31,13.70
2015,05,19,01,32,13.60
2015,05,19,01,33,13.60
2015,05,19,01,34,13.60
2015,05,19,01,35,13.60
2015,05,19,01,36,13.60
2015,05,19,01,37,13.50
2015,05,19,01,38,13.50
2015,05,19,01,39,13.40
2015,05,19,01,40,13.40
2015,05,19,01,41,13.40
2015,05,19,01,42,13.40
2015,05,19,01,43,13.40
2015,05,19,01,44,13.40
2015,05,19,01,45,13.40
2015,05,19,01,46,13.40
2015,05,19,01,47,13.30
2015,05,19,01,48,13.30
2015,05,19,01,49,13.30
2015,05,19,01,50,13.30
2015,05,19,01,51,13.30
2015,05,19,01,52,13.30
2015,05,19,01,53,13.20
2015,05,19,01,54,13.20
2015,05,19,01,55,13.20
2015,05,19,01,56,13.10
2015,05,19,01,57,13.10
2015,05,19,01,58,13.10
2015,05,19,01,59,13.10
2015,05,19,02,00,13.10
2015,05,19,02,01,13.00
2015,05,19,02,02,13.00
2015,05,19,02,03,13.00
2015,05,19,02,04,12.90
2015,05,19,02,05,12.90
2015,05,19,02,06,12.90
2015,05,19,02,07,12.80
2015,05,19,02,08,12.80
2015,05,19,02,09,12.80
2015,05,19,02,10,12.80
2015,05,19,02,11,12.70
2015,05,19,02,12,12.70
2015,05,19,02,13,12.70
2015,05,19,02,14,12.70
2015,05,19,02,15,12.60
2015,05,19,02,16,12.60
2015,05,19,02,17,12.60
2015,05,19,02,18,12.60
2015,05,19,02,19,12.60
2015,05,19,02,20,12.50
2015,05,19,02,21,12.50
2015,05,19,02,22,12.50
2015,05,19,02,23,12.40
2015,05,19,02,24,12.40
2015,05,19,02,25,12.40
2015,05,19,02,26,12.40
2015,05,19,02,27,12.30
2015,05,19,02,28,12.30
2015,05,19,02,29,12.30
2015,05,19,02,30,12.30
2015,05,19,02,31,12.20
2015,05,19,02,32,12.20
2015,05,19,02,33,12.20
2015,05,19,02,34,12.20
2015,05,19,02,35,12.20
2015,05,19,02,36,12.20
2015,05,19,02,37,12.20
2015,05,19,02,38,12.20
2015,05,19,02,39,12.20
2015,05,19,02,40,12.20
2015,05,19,02,41,12.20
2015,05,19,02,42,12.20
2015,05,19,02,43,12.20
2015,05,19,02,44,12.20
2015,05,19,02,45,12.20
2015,05,19,02,46,12.20
2015,05,19,02,47,12.20
2015,05,19,02,48,12.20
2015,05,19,02,49,12.20
2015,05,19,02,50,12.20
2015,05,19,02,51,12.20
2015,05,19,02,52,12.30
2015,05,19,02,53,12.30
2015,05,19,02,54,12.30
2015,05,19,02,55,12.30
2015,05,19,02,56,12.30
2015,05,19,02,57,12.30
2015,05,19,02,58,12.30
2015,05,19,02,59,12.20
2015,05,19,03,00,12.20
2015,05,19,03,01,12.20
2015,05,19,03,02,12.10
2015,05,19,03,03,12.10
2015,05,19,03,04,12.10
2015,05,19,03,05,12.10
2015,05,19,03,06,12.10
2015,05,19,03,07,12.20
2015,05,19,03,08,12.20
2015,05,19,03,09,12.20
2015,05,19,03,10,12.20
2015,05,19,03,11,12.20
2015,05,19,03,12,12.20
2015,05,19,03,13,12.10
2015,05,19,03,14,12.10
2015,05,19,03,15,12.10
2015,05,19,03,16,12.10
2015,05,19,03,17,12.10
2015,05,19,03,18,12.10
2015,05,19,03,19,12.10
2015,05,19,03,20,12.10
2015,05,19,03,21,12.10
2015,05,19,03,22,12.20
2015,05,19,03,23,12.10
2015,05,19,03,24,12.10
2015,05,19,03,25,12.10
2015,05,19,03,26,12.10
2015,05,19,03,27,12.10
2015,05,19,03,28,12.00
2015,05,19,03,29,12.00
2015,05,19,03,30,11.90
2015,05,19,03,31,11.90
2015,05,19,03,32,11.80
2015,05,19,03,33,11.80
2015,05,19,03,34,11.70
2015,05,19,03,35,11.70
2015,05,19,03,36,11.80
2015,05,19,03,37,11.80
2015,05,19,03,38,11.90
2015,05,19,03,39,11.90
2015,05,19,03,40,12.00
2015,05,19,03,41,12.20
2015,05,19,03,42,12.30
2015,05,19,03,43,12.40
2015,05,19,03,44,12.60
2015,05,19,03,45,12.80
2015,05,19,03,46,12.90
2015,05,19,03,47,13.00
2015,05,19,03,48,13.00
2015,05,19,03,49,13.10
2015,05,19,03,50,13.10
2015,05,19,03,51,13.10
2015,05,19,03,52,13.20
2015,05,19,03,53,13.30
2015,05,19,03,54,13.40
2015,05,19,03,55,13.40
2015,05,19,03,56,13.50
2015,05,19,03,57,13.50
2015,05,19,03,58,13.60
2015,05,19,03,59,13.70
2015,05,19,04,00,13.80
2015,05,19,04,01,13.90
2015,05,19,04,02,14.00
2015,05,19,04,03,14.10
2015,05,19,04,04,14.10
2015,05,19,04,05,14.10
2015,05,19,04,06,14.10
2015,05,19,04,07,14.10
2015,05,19,04,08,14.20
2015,05,19,04,09,14.20
2015,05,19,04,10,14.20
2015,05,19,04,11,14.20
2015,05,19,04,12,14.20
2015,05,19,04,13,14.20
2015,05,19,04,14,14.20
2015,05,19,04,15,14.30
2015,05,19,04,16,14.30
2015,05,19,04,17,14.40
2015,05,19,04,18,14.40
2015,05,19,04,19,14.40
2015,05,19,04,20,14.40
2015,05,19,04,21,14.40
2015,05,19,04,22,14.50
2015,05,19,04,23,14.50
2015,05,19,04,24,14.60
2015,05,19,04,25,14.60
2015,05,19,04,26,14.60
2015,05,19,04,27,14.60
2015,05,19,04,28,14.60
2015,05,19,04,29,14.60
2015,05,19,04,30,14.60
2015,05,19,04,31,14.60
2015,05,19,04,32,14.60
2015,05,19,04,33,14.60
2015,05,19,04,34,14.70
2015,05,19,04,35,14.70
2015,05,19,04,36,14.70
2015,05,19,04,37,14.70
2015,05,19,04,38,14.70
2015,05,19,04,39,14.70
2015,05,19,04,40,14.60
2015,05,19,04,41,14.60
2015,05,19,04,42,14.50
2015,05,19,04,43,14.50
2015,05,19,04,44,14.40
2015,05,19,04,45,14.30
2015,05,19,04,46,14.20
2015,05,19,04,47,14.10
2015,05,19,04,48,14.00
2015,05,19,04,49,13.80
2015,05,19,04,50,13.70
2015,05,19,04,51,13.70
2015,05,19,04,52,13.70
2015,05,19,04,53,13.70
2015,05,19,04,54,13.80
2015,05,19,04,55,13.90
2015,05,19,04,56,13.90
2015,05,19,04,57,14.00
2015,05,19,04,58,14.10
2015,05,19,04,59,14.20
2015,05,19,05,00,14.20
2015,05,19,05,01,14.20
2015,05,19,05,02,14.20
2015,05,19,05,03,14.30
2015,05,19,05,04,14.40
2015,05,19,05,05,14.50
2015,05,19,05,06,14.50
2015,05,19,05,07,14.60
2015,05,19,05,08,14.60
2015,05,19,05,09,14.60
2015,05,19,05,10,14.50
2015,05,19,05,11,14.50
2015,05,19,05,12,14.40
2015,05,19,05,13,14.40
2015,05,19,05,14,14.30
2015,05,19,05,15,14.30
2015,05,19,05,16,14.30
2015,05,19,05,17,14.20
2015,05,19,05,18,14.20
2015,05,19,05,19,14.10
2015,05,19,05,20,14.00
2015,05,19,05,21,13.90
2015,05,19,05,22,13.80
2015,05,19,05,23,13.80
2015,05,19,05,24,13.70
2015,05,19,05,25,13.60
2015,05,19,05,26,13.50
2015,05,19,05,27,13.40
2015,05,19,05,28,13.30
2015,05,19,05,29,13.20
2015,05,19,05,30,13.10
2015,05,19,05,31,13.00
2015,05,19,05,32,12.80
2015,05,19,05,33,12.70
2015,05,19,05,34,12.60
2015,05,19,05,35,12.50
2015,05,19,05,36,12.50
2015,05,19,05,37,12.40
2015,05,19,05,38,12.40
2015,05,19,05,39,12.40
2015,05,19,05,40,12.50
2015,05,19,05,41,12.60
2015,05,19,05,42,12.60
2015,05,19,05,43,12.60
2015,05,19,05,44,12.70
2015,05,19,05,45,12.70
2015,05,19,05,46,12.60
2015,05,19,05,47,12.60
2015,05,19,05,48,12.60
2015,05,19,05,49,12.60
2015,05,19,05,50,12.60
2015,05,19,05,51,12.50
2015,05,19,05,52,12.40
2015,05,19,05,53,12.40
2015,05,19,05,54,12.40
2015,05,19,05,55,12.50
2015,05,19,05,56,12.50
2015,05,19,05,57,12.50
2015,05,19,05,58,12.60
2015,05,19,05,59,12.70
2015,05,19,06,00,12.80
2015,05,19,06,01,13.00
2015,05,19,06,02,13.10
2015,05,19,06,03,13.10
2015,05,19,06,04,13.20
2015,05,19,06,05,13.10
2015,05,19,06,06,13.10
2015,05,19,06,07,13.10
2015,05,19,06,08,13.10
2015,05,19,06,09,13.00
2015,05,19,06,10,13.00
2015,05,19,06,11,12.90
2015,05,19,06,12,12.90
2015,05,19,06,13,12.90
2015,05,19,06,14,12.90
2015,05,19,06,15,12.90
2015,05,19,06,16,12.90
2015,05,19,06,17,12.90
2015,05,19,06,18,13.00
2015,05,19,06,19,13.00
2015,05,19,06,20,13.10
2015,05,19,06,21,13.10
2015,05,19,06,22,13.20
2015,05,19,06,23,13.30
2015,05,19,06,24,13.30
2015,05,19,06,25,13.30
2015,05,19,06,26,13.40
2015,05,19,06,27,13.40
2015,05,19,06,28,13.40
2015,05,19,06,29,13.40
2015,05,19,06,30,13.40
2015,05,19,06,31,13.30
2015,05,19,06,32,13.30
2015,05,19,06,33,13.30
2015,05,19,06,34,13.30
2015,05,19,06,35,13.20
2015,05,19,06,36,13.20
2015,05,19,06,37,13.20
2015,05,19,06,38,13.20
2015,05,19,06,39,13.20
2015,05,19,06,40,13.20
2015,05,19,06,41,13.20
2015,05,19,06,42,13.20
2015,05,19,06,43,13.20
2015,05,19,06,44,13.20
2015,05,19,06,45,13.20
2015,05,19,06,46,13.30
2015,05,19,06,47,13.30
2015,05,19,06,48,13.40
2015,05,19,06,49,13.40
2015,05,19,06,50,13.50
2015,05,19,06,51,13.60
2015,05,19,06,52,13.60
2015,05,19,06,53,13.70
2015,05,19,06,54,13.80
2015,05,19,06,55,13.90
2015,05,19,06,56,14.10
2015,05,19,06,57,14.20
2015,05,19,06,58,14.30
2015,05,19,06,59,14.50
2015,05,19,07,00,14.60
2015,05,19,07,01,14.70
2015,05,19,07,02,14.80
2015,05,19,07,03,14.90
2015,05,19,07,04,15.00
2015,05,19,07,05,15.10
2015,05,19,07,06,15.20
2015,05,19,07,07,15.20
2015,05,19,07,08,15.30
2015,05,19,07,09,15.40
2015,05,19,07,10,15.40
2015,05,19,07,11,15.50
2015,05,19,07,12,15.50
2015,05,19,07,13,15.60
2015,05,19,07,14,15.60
2015,05,19,07,15,15.60
2015,05,19,07,16,15.60
2015,05,19,07,17,15.70
2015,05,19,07,18,15.70
2015,05,19,07,19,15.70
2015,05,19,07,20,15.80
2015,05,19,07,21,15.80
2015,05,19,07,22,15.80
2015,05,19,07,23,15.90
2015,05,19,07,24,15.90
2015,05,19,07,25,15.90
2015,05,19,07,26,15.90
2015,05,19,07,27,16.00
2015,05,19,07,28,16.00
2015,05,19,07,29,16.00
2015,05,19,07,30,16.00
2015,05,19,07,31,16.00
2015,05,19,07,32,16.10
2015,05,19,07,33,16.10
2015,05,19,07,34,16.10
2015,05,19,07,35,16.10
2015,05,19,07,36,16.10
2015,05,19,07,37,16.10
2015,05,19,07,38,16.10
2015,05,19,07,39,16.10
2015,05,19,07,40,16.10
2015,05,19,07,41,16.10
2015,05,19,07,42,16.10
2015,05,19,07,43,16.10
2015,05,19,07,44,16.10
2015,05,19,07,45,16.10
2015,05,19,07,46,16.10
2015,05,19,07,47,16.10
2015,05,19,07,48,16.10
2015,05,19,07,49,16.20
2015,05,19,07,50,16.10
2015,05,19,07,51,16.10
2015,05,19,07,52,16.10
2015,05,19,07,53,16.20
2015,05,19,07,54,16.20
2015,05,19,07,55,16.10
2015,05,19,07,56,16.10
2015,05,19,07,57,16.20
2015,05,19,07,58,16.20
2015,05,19,07,59,16.20
2015,05,19,08,00,16.20
2015,05,19,08,01,16.20
2015,05,19,08,02,16.30
2015,05,19,08,03,16.30
2015,05,19,08,04,16.30
2015,05,19,08,05,16.30
2015,05,19,08,06,16.30
2015,05,19,08,07,16.30
2015,05,19,08,08,16.40
2015,05,19,08,09,16.40
2015,05,19,08,10,16.40
2015,05,19,08,11,16.50
2015,05,19,08,12,16.50
2015,05,19,08,13,16.60
2015,05,19,08,14,16.60
2015,05,19,08,15,16.70
2015,05,19,08,16,16.80
2015,05,19,08,17,16.80
2015,05,19,08,18,16.80
2015,05,19,08,19,16.90
2015,05,19,08,20,16.90
2015,05,19,08,21,16.90
2015,05,19,08,22,16.90
2015,05,19,08,23,17.00
2015,05,19,08,24,17.00
2015,05,19,08,25,17.10
2015,05,19,08,26,17.10
2015,05,19,08,27,17.10
2015,05,19,08,28,17.10
2015,05,19,08,29,17.20
2015,05,19,08,30,17.20
2015,05,19,08,31,17.30
2015,05,19,08,32,17.30
2015,05,19,08,33,17.30
2015,05,19,08,34,17.30
2015,05,19,08,35,17.30
2015,05,19,08,36,17.40
2015,05,19,08,37,17.40
2015,05,19,08,38,17.40
2015,05,19,08,39,17.40
2015,05,19,08,40,17.40
2015,05,19,08,41,17.40
2015,05,19,08,42,17.40
2015,05,19,08,43,17.40
2015,05,19,08,44,17.50
2015,05,19,08,45,17.50
2015,05,19,08,46,17.50
2015,05,19,08,47,17.50
2015,05,19,08,48,17.60
2015,05,19,08,49,17.60
2015,05,19,08,50,17.60
2015,05,19,08,51,17.70
2015,05,19,08,52,17.70
2015,05,19,08,53,17.80
2015,05,19,08,54,17.80
2015,05,19,08,55,17.80
2015,05,19,08,56,17.80
2015,05,19,08,57,17.80
2015,05,19,08,58,17.80
2015,05,19,08,59,17.80
2015,05,19,09,00,17.80
2015,05,19,09,01,17.70
2015,05,19,09,02,17.80
2015,05,19,09,03,17.80
2015,05,19,09,04,17.80
2015,05,19,09,05,17.80
2015,05,19,09,06,17.80
2015,05,19,09,07,17.80
2015,05,19,09,08,17.80
2015,05,19,09,09,17.90
2015,05,19,09,10,17.90
2015,05,19,09,11,17.90
2015,05,19,09,12,17.90
2015,05,19,09,13,17.90
2015,05,19,09,14,17.80
2015,05,19,09,15,17.80
2015,05,19,09,16,17.80
2015,05,19,09,17,17.80
2015,05,19,09,18,17.80
2015,05,19,09,19,17.90
2015,05,19,09,20,17.90
2015,05,19,09,21,18.00
2015,05,19,09,22,18.00
2015,05,19,09,23,18.10
2015,05,19,09,24,18.10
2015,05,19,09,25,18.20
2015,05,19,09,26,18.30
2015,05,19,09,27,18.30
2015,05,19,09,28,18.40
2015,05,19,09,29,18.40
2015,05,19,09,30,18.40
2015,05,19,09,31,18.40
2015,05,19,09,32,18.40
2015,05,19,09,33,18.40
2015,05,19,09,34,18.50
2015,05,19,09,35,18.50
2015,05,19,09,36,18.50
2015,05,19,09,37,18.40
2015,05,19,09,38,18.40
2015,05,19,09,39,18.40
2015,05,19,09,40,18.40
2015,05,19,09,41,18.30
2015,05,19,09,42,18.30
2015,05,19,09,43,18.30
2015,05,19,09,44,18.40
2015,05,19,09,45,18.40
2015,05,19,09,46,18.50
2015,05,19,09,47,18.50
2015,05,19,09,48,18.40
2015,05,19,09,49,18.40
2015,05,19,09,50,18.40
2015,05,19,09,51,18.40
2015,05,19,09,52,18.50
2015,05,19,09,53,18.50
2015,05,19,09,54,18.60
2015,05,19,09,55,18.60
2015,05,19,09,56,18.50
2015,05,19,09,57,18.50
2015,05,19,09,58,18.40
2015,05,19,09,59,18.40
2015,05,19,10,00,18.40
2015,05,19,10,01,18.40
2015,05,19,10,02,18.50
2015,05,19,10,03,18.50
2015,05,19,10,04,18.60
2015,05,19,10,05,18.60
2015,05,19,10,06,18.70
2015,05,19,10,07,18.70
2015,05,19,10,08,18.70
2015,05,19,10,09,18.80
2015,05,19,10,10,18.80
2015,05,19,10,11,18.80
2015,05,19,10,12,18.80
2015,05,19,10,13,18.80
2015,05,19,10,14,18.80
2015,05,19,10,15,18.80
2015,05,19,10,16,18.80
2015,05,19,10,17,18.90
2015,05,19,10,18,19.00
2015,05,19,10,19,19.10
2015,05,19,10,20,19.20
2015,05,19,10,21,19.20
2015,05,19,10,22,19.20
2015,05,19,10,23,19.20
2015,05,19,10,24,19.30
2015,05,19,10,25,19.30
2015,05,19,10,26,19.30
2015,05,19,10,27,19.40
2015,05,19,10,28,19.40
2015,05,19,10,29,19.40
2015,05,19,10,30,19.40
2015,05,19,10,31,19.50
2015,05,19,10,32,19.60
2015,05,19,10,33,19.70
2015,05,19,10,34,19.80
2015,05,19,10,35,19.90
2015,05,19,10,36,19.90
2015,05,19,10,37,20.00
2015,05,19,10,38,20.10
2015,05,19,10,39,20.10
2015,05,19,10,40,20.10
2015,05,19,10,41,20.10
2015,05,19,10,42,20.10
2015,05,19,10,43,20.00
2015,05,19,10,44,20.00
2015,05,19,10,45,20.00
2015,05,19,10,46,20.00
2015,05,19,10,47,20.00
2015,05,19,10,48,20.10
2015,05,19,10,49,20.10
2015,05,19,10,50,20.10
2015,05,19,10,51,20.10
2015,05,19,10,52,20.10
2015,05,19,10,53,20.10
2015,05,19,10,54,20.20
2015,05,19,10,55,20.30
2015,05,19,10,56,20.30
2015,05,19,10,57,20.40
2015,05,19,10,58,20.40
2015,05,19,10,59,20.40
2015,05,19,11,00,20.40
2015,05,19,11,01,20.30
2015,05,19,11,02,20.20
2015,05,19,11,03,20.20
2015,05,19,11,04,20.30
2015,05,19,11,05,20.30
2015,05,19,11,06,20.20
2015,05,19,11,07,20.30
2015,05,19,11,08,20.30
2015,05,19,11,09,20.40
2015,05,19,11,10,20.40
2015,05,19,11,11,20.30
2015,05,19,11,12,20.30
2015,05,19,11,13,20.30
2015,05,19,11,14,20.30
2015,05,19,11,15,20.30
2015,05,19,11,16,20.20
2015,05,19,11,17,20.20
2015,05,19,11,18,20.10
2015,05,19,11,19,20.10
2015,05,19,11,20,20.00
2015,05,19,11,21,20.00
2015,05,19,11,22,19.90
2015,05,19,11,23,20.00
2015,05,19,11,24,20.00
2015,05,19,11,25,20.10
2015,05,19,11,26,20.10
2015,05,19,11,27,20.20
2015,05,19,11,28,20.20
2015,05,19,11,29,20.30
2015,05,19,11,30,20.30
2015,05,19,11,31,20.30
2015,05,19,11,32,20.30
2015,05,19,11,33,20.30
2015,05,19,11,34,20.20
2015,05,19,11,35,20.20
2015,05,19,11,36,20.30
2015,05,19,11,37,20.30
2015,05,19,11,38,20.30
2015,05,19,11,39,20.30
2015,05,19,11,40,20.40
2015,05,19,11,41,20.50
2015,05,19,11,42,20.60
2015,05,19,11,43,20.60
2015,05,19,11,44,20.60
2015,05,19,11,45,20.60
2015,05,19,11,46,20.60
2015,05,19,11,47,20.70
2015,05,19,11,48,20.60
2015,05,19,11,49,20.50
2015,05,19,11,50,20.50
2015,05,19,11,51,20.40
2015,05,19,11,52,20.40
2015,05,19,11,53,20.40
2015,05,19,11,54,20.30
2015,05,19,11,55,20.40
2015,05,19,11,56,20.50
2015,05,19,11,57,20.60
2015,05,19,11,58,20.70
2015,05,19,11,59,20.70
2015,05,19,12,00,20.80
2015,05,19,12,01,20.80
2015,05,19,12,02,20.80
2015,05,19,12,03,20.90
2015,05,19,12,04,20.90
2015,05,19,12,05,20.80
2015,05,19,12,06,20.80
2015,05,19,12,07,20.80
2015,05,19,12,08,20.80
2015,05,19,12,09,20.80
2015,05,19,12,10,20.80
2015,05,19,12,11,20.90
2015,05,19,12,12,20.80
2015,05,19,12,13,20.80
2015,05,19,12,14,20.80
2015,05,19,12,15,20.80
2015,05,19,12,16,20.90
2015,05,19,12,17,21.00
2015,05,19,12,18,21.00
2015,05,19,12,19,21.00
2015,05,19,12,20,21.10
2015,05,19,12,21,21.00
2015,05,19,12,22,21.00
2015,05,19,12,23,20.90
2015,05,19,12,24,20.90
2015,05,19,12,25,20.90
2015,05,19,12,26,20.80
2015,05,19,12,27,20.80
2015,05,19,12,28,20.80
2015,05,19,12,29,20.80
2015,05,19,12,30,20.80
2015,05,19,12,31,20.80
2015,05,19,12,32,20.90
2015,05,19,12,33,21.00
2015,05,19,12,34,21.00
2015,05,19,12,35,21.10
2015,05,19,12,36,21.20
2015,05,19,12,37,21.20
2015,05,19,12,38,21.30
2015,05,19,12,39,21.30
2015,05,19,12,40,21.30
2015,05,19,12,41,21.30
2015,05,19,12,42,21.30
2015,05,19,12,43,21.30
2015,05,19,12,44,21.40
2015,05,19,12,45,21.40
2015,05,19,12,46,21.40
2015,05,19,12,47,21.40
2015,05,19,12,48,21.40
2015,05,19,12,49,21.40
2015,05,19,12,50,21.40
2015,05,19,12,51,21.50
2015,05,19,12,52,21.60
2015,05,19,12,53,21.60
2015,05,19,12,54,21.60
2015,05,19,12,55,21.60
2015,05,19,12,56,21.60
2015,05,19,12,57,21.70
2015,05,19,12,58,21.70
2015,05,19,12,59,21.70
2015,05,19,13,00,21.80
2015,05,19,13,01,21.90
2015,05,19,13,02,22.00
2015,05,19,13,03,22.00
2015,05,19,13,04,22.00
2015,05,19,13,05,22.10
2015,05,19,13,06,22.10
2015,05,19,13,07,22.10
2015,05,19,13,08,22.10
2015,05,19,13,09,22.10
2015,05,19,13,10,22.10
2015,05,19,13,11,22.10
2015,05,19,13,12,22.00
2015,05,19,13,13,21.90
2015,05,19,13,14,21.80
2015,05,19,13,15,21.80
2015,05,19,13,16,21.80
2015,05,19,13,17,21.80
2015,05,19,13,18,21.90
2015,05,19,13,19,22.10
2015,05,19,13,20,22.20
2015,05,19,13,21,22.30
2015,05,19,13,22,22.40
2015,05,19,13,23,22.40
2015,05,19,13,24,22.50
2015,05,19,13,25,22.50
2015,05,19,13,26,22.50
2015,05,19,13,27,22.50
2015,05,19,13,28,22.40
2015,05,19,13,29,22.30
2015,05,19,13,30,22.30
2015,05,19,13,31,22.50
2015,05,19,13,32,22.60
2015,05,19,13,33,22.70
2015,05,19,13,34,22.70
2015,05,19,13,35,22.60
2015,05,19,13,36,22.60
2015,05,19,13,37,22.60
2015,05,19,13,38,22.60
2015,05,19,13,39,22.60
2015,05,19,13,40,22.70
2015,05,19,13,41,22.80
2015,05,19,13,42,22.90
2015,05,19,13,43,23.00
2015,05,19,13,44,23.10
2015,05,19,13,45,23.20
2015,05,19,13,46,23.30
2015,05,19,13,47,23.30
2015,05,19,13,48,23.30
2015,05,19,13,49,23.30
2015,05,19,13,50,23.30
2015,05,19,13,51,23.30
2015,05,19,13,52,23.40
2015,05,19,13,53,23.30
2015,05,19,13,54,23.40
2015,05,19,13,55,23.30
2015,05,19,13,56,23.20
2015,05,19,13,57,23.10
2015,05,19,13,58,22.90
2015,05,19,13,59,22.70
2015,05,19,14,00,22.60
2015,05,19,14,01,22.50
2015,05,19,14,02,22.40
2015,05,19,14,03,22.30
2015,05,19,14,04,22.20
2015,05,19,14,05,22.10
2015,05,19,14,06,22.10
2015,05,19,14,07,22.00
2015,05,19,14,08,21.90
2015,05,19,14,09,21.90
2015,05,19,14,10,21.90
2015,05,19,14,11,21.90
2015,05,19,14,12,21.80
2015,05,19,14,13,21.80
2015,05,19,14,14,21.90
2015,05,19,14,15,21.80
2015,05,19,14,16,21.80
2015,05,19,14,17,21.80
2015,05,19,14,18,21.80
2015,05,19,14,19,21.70
2015,05,19,14,20,21.70
2015,05,19,14,21,21.60
2015,05,19,14,22,21.60
2015,05,19,14,23,21.70
2015,05,19,14,24,21.80
2015,05,19,14,25,21.80
2015,05,19,14,26,21.80
2015,05,19,14,27,21.90
2015,05,19,14,28,21.90
2015,05,19,14,29,21.80
2015,05,19,14,30,21.90
2015,05,19,14,31,21.90
2015,05,19,14,32,21.90
2015,05,19,14,33,21.90
2015,05,19,14,34,21.90
2015,05,19,14,35,21.90
2015,05,19,14,36,21.70
2015,05,19,14,37,21.60
2015,05,19,14,38,21.50
2015,05,19,14,39,21.40
2015,05,19,14,40,21.30
2015,05,19,14,41,21.20
2015,05,19,14,42,21.20
2015,05,19,14,43,21.20
2015,05,19,14,44,21.20
2015,05,19,14,45,21.00
2015,05,19,14,46,20.90
2015,05,19,14,47,20.80
2015,05,19,14,48,20.60
2015,05,19,14,49,20.50
2015,05,19,14,50,20.40
2015,05,19,14,51,20.40
2015,05,19,14,52,20.30
2015,05,19,14,53,20.30
2015,05,19,14,54,20.30
2015,05,19,14,55,20.30
2015,05,19,14,56,20.30
2015,05,19,14,57,20.40
2015,05,19,14,58,20.40
2015,05,19,14,59,20.40
2015,05,19,15,00,20.40
2015,05,19,15,01,20.50
2015,05,19,15,02,20.50
2015,05,19,15,03,20.60
2015,05,19,15,04,20.60
2015,05,19,15,05,20.60
2015,05,19,15,06,20.60
2015,05,19,15,07,20.60
2015,05,19,15,08,20.60
2015,05,19,15,09,20.50
2015,05,19,15,10,20.50
2015,05,19,15,11,20.60
2015,05,19,15,12,20.60
2015,05,19,15,13,20.60
2015,05,19,15,14,20.70
2015,05,19,15,15,20.70
2015,05,19,15,16,20.70
2015,05,19,15,17,20.70
2015,05,19,15,18,20.70
2015,05,19,15,19,20.60
2015,05,19,15,20,20.60
2015,05,19,15,21,20.60
2015,05,19,15,22,20.60
2015,05,19,15,23,20.60
2015,05,19,15,24,20.50
2015,05,19,15,25,20.50
2015,05,19,15,26,20.50
2015,05,19,15,27,20.50
2015,05,19,15,28,20.50
2015,05,19,15,29,20.50
2015,05,19,15,30,20.50
2015,05,19,15,31,20.50
2015,05,19,15,32,20.50
2015,05,19,15,33,20.50
2015,05,19,15,34,20.60
2015,05,19,15,35,20.60
2015,05,19,15,36,20.60
2015,05,19,15,37,20.60
2015,05,19,15,38,20.70
2015,05,19,15,39,20.70
2015,05,19,15,40,20.70
2015,05,19,15,41,20.80
2015,05,19,15,42,20.80
2015,05,19,15,43,20.90
2015,05,19,15,44,20.90
2015,05,19,15,45,20.90
2015,05,19,15,46,21.00
2015,05,19,15,47,21.00
2015,05,19,15,48,21.10
2015,05,19,15,49,21.10
2015,05,19,15,50,21.20
2015,05,19,15,51,21.20
2015,05,19,15,52,21.20
2015,05,19,15,53,21.20
2015,05,19,15,54,21.30
2015,05,19,15,55,21.30
2015,05,19,15,56,21.30
2015,05,19,15,57,21.40
2015,05,19,15,58,21.40
2015,05,19,15,59,21.50
2015,05,19,16,00,21.50
2015,05,19,16,01,21.50
2015,05,19,16,02,21.60
2015,05,19,16,03,21.60
2015,05,19,16,04,21.60
2015,05,19,16,05,21.60
2015,05,19,16,06,21.60
2015,05,19,16,07,21.70
2015,05,19,16,08,21.70
2015,05,19,16,09,21.80
2015,05,19,16,10,21.90
2015,05,19,16,11,22.00
2015,05,19,16,12,22.00
2015,05,19,16,13,22.10
2015,05,19,16,14,22.20
2015,05,19,16,15,22.30
2015,05,19,16,16,22.30
2015,05,19,16,17,22.40
2015,05,19,16,18,22.40
2015,05,19,16,19,22.50
2015,05,19,16,20,22.60
2015,05,19,16,21,22.70
2015,05,19,16,22,22.80
2015,05,19,16,23,22.90
2015,05,19,16,24,23.00
2015,05,19,16,25,23.20
2015,05,19,16,26,23.40
2015,05,19,16,27,23.50
2015,05,19,16,28,23.60
2015,05,19,16,29,23.80
2015,05,19,16,30,23.90
2015,05,19,16,31,24.10
2015,05,19,16,32,24.30
2015,05,19,16,33,24.40
2015,05,19,16,34,24.50
2015,05,19,16,35,24.60
2015,05,19,16,36,24.70
2015,05,19,16,37,24.70
2015,05,19,16,38,24.80
2015,05,19,16,39,24.80
2015,05,19,16,40,24.80
2015,05,19,16,41,24.90
2015,05,19,16,42,24.90
2015,05,19,16,43,25.00
2015,05,19,16,44,25.00
2015,05,19,16,45,25.10
2015,05,19,16,46,25.10
2015,05,19,16,47,25.20
2015,05,19,16,48,25.20
2015,05,19,16,49,25.30
2015,05,19,16,50,25.40
2015,05,19,16,51,25.40
2015,05,19,16,52,25.40
2015,05,19,16,53,25.30
2015,05,19,16,54,25.30
2015,05,19,16,55,25.20
2015,05,19,16,56,25.10
2015,05,19,16,57,25.00
2015,05,19,16,58,24.90
2015,05,19,16,59,24.80
2015,05,19,17,00,24.60
2015,05,19,17,01,24.50
2015,05,19,17,02,24.40
2015,05,19,17,03,24.40
2015,05,19,17,04,24.50
2015,05,19,17,05,24.60
2015,05,19,17,06,24.70
2015,05,19,17,07,24.80
2015,05,19,17,08,24.80
2015,05,19,17,09,24.80
2015,05,19,17,10,24.80
2015,05,19,17,11,24.80
2015,05,19,17,12,24.80
2015,05,19,17,13,24.80
2015,05,19,17,14,24.80
2015,05,19,17,15,24.80
2015,05,19,17,16,24.80
2015,05,19,17,17,24.80
2015,05,19,17,18,24.80
2015,05,19,17,19,24.80